User: anonymous   Login
Location: Unspecified
(0.0000°N, 0.0000°E)
Time: 21:05:49
(UTC+00:00)
Language:

TBA - TO BE ASSIGNED - Orbit

View from above orbital plane
View from above orbital plane
View from above satellite
View from above satellite

Ground track
Ground track

The orbit is defined by the following mean orbital elements,

1 68832U          26145.43735931 +.00000000 +00000-0 +56340-3 0 00004
2 68832  55.0009 121.1094 0010866   3.3559 356.7531 15.19233787    08
Epoch (UTC): 25 May 2026 10:29:47
Eccentricity: 0.0010866
inclination: 55.0009°
perigee height: 501 km
apogee height: 516 km
right ascension of ascending node: 121.1094°
argument of perigee: 3.3559°
revolutions per day: 15.19233787
mean anomaly at epoch: 356.7531°

The dashed part of the orbit path shows where the satellite is in the earth's shadow,  

DLR